Location: Luxembourg
(49.6117°N, 6.1300°E)
Time: 21:08:14
(UTC+02:00)

Tiangong 2 - Visible Passes

Search period start: 19 May 2019 00:00
Search period end: 29 May 2019 00:00
Orbit: 378 x 387 km, 42.8° (Epoch: 19 May)

Date Brightness Start Highest point End Pass type
(mag) Time Alt. Az. Time Alt. Az. Time Alt. Az.
20 May 2.9 22:59:05 10° SSW 23:00:27 16° S 23:00:27 16° S visible
21 May 3.0 21:59:48 10° SSW 22:01:31 14° SSE 22:03:15 10° SE visible
21 May 3.1 23:35:03 10° SW 23:36:03 16° SW 23:36:03 16° SW visible
22 May 2.5 22:35:19 10° SW 22:37:45 21° S 22:39:08 16° SE visible
23 May 2.3 23:11:30 10° WSW 23:14:04 23° S 23:14:09 23° S visible
24 May 2.4 22:11:39 10° SW 22:14:12 23° S 22:16:46 10° ESE visible
24 May 3.3 23:48:07 10° WSW 23:49:02 14° SW 23:49:02 14° SW visible
25 May 2.6 22:48:02 10° WSW 22:50:30 21° S 22:51:39 17° SSE visible
26 May 3.2 23:24:57 10° SW 23:26:22 14° SSW 23:26:22 14° SSW visible
27 May 2.9 22:24:38 10° WSW 22:26:52 18° SSW 22:28:54 11° SSE visible
28 May 3.5 23:02:33 10° SSW 23:02:59 10° SSW 23:03:26 10° SSW visible
